Flag for Portugal Weather past 2 weeks in Faro, Portugal

Now
68 °F

Sunny.


Feels Like: 68 °F
Forecast: 64 / 83 °F
Wind: 7 mph from West

Location: Faro / Aeroporto

Current Time: May 29, 2015 at 10:43:01 PM

Latest Report: May 29, 2015 at 9:30 PM


Visibility: 10 mi

Pressure: 29.98 "Hg

Humidity: 94%

Dew point: 66 °F

Location of FaroLocation

Historic Weather in Faro — Graph

°F

Faro temperature yesterday

Maximum temperature yesterday: 84 °F (at 3:30 PM)
Minimum temperature yesterday: 66 °F (at 6:00 AM)
Average temperature yesterday: 75 °F

Past Weeks' High & Low Weather Summary

 TemperatureHumidityPressure
High86 °F (May 15, 5:30 PM)94% (May 23, 3:00 AM)30.18 "Hg (May 23, 3:00 AM)
Low57 °F (May 15, 5:30 AM)14% (May 15, 3:00 PM)29.83 "Hg (May 19, 4:30 AM)
Average71 °F56%30.01 "Hg
* Reported May 14 9:00 PM — May 29 9:30 PM, Faro, Weather by CustomWeather, © 2015

Note: Actual official high and low records may vary slightly from our data, if they occured in-between our weather recording intervals... More about our weather records

Advertising

Faro weather history for previous 24 hours

 ConditionsComfort  
Time TempWeatherWind HumidityBarometerVisibility
9:30 PM
Fri, May 29
68 °FSunny.7 mph94%29.98 "Hg10 mi
9:00 PM70 °FSunny.8 mph88%29.98 "Hg10 mi
8:30 PM70 °FSunny.7 mph88%29.98 "Hg10 mi
8:00 PM70 °FSunny.8 mph88%29.95 "Hg10 mi
7:30 PM72 °FPassing clouds.7 mph83%29.95 "HgN/A
7:00 PM72 °FPassing clouds.6 mph83%29.95 "HgN/A
6:30 PM72 °FPassing clouds.6 mph83%29.95 "HgN/A
6:00 PM72 °FPassing clouds.7 mph83%29.95 "HgN/A
5:30 PM73 °FPassing clouds.7 mph78%29.95 "HgN/A
5:00 PM73 °FPassing clouds.7 mph78%29.98 "HgN/A
4:30 PM73 °FScattered clouds.8 mph74%29.95 "HgN/A
4:00 PM73 °FPassing clouds.9 mph78%29.95 "HgN/A
3:30 PM73 °FPassing clouds.8 mph78%29.95 "HgN/A
3:00 PM75 °FPassing clouds.9 mph74%29.95 "HgN/A
2:30 PM75 °FPassing clouds.8 mph69%29.95 "HgN/A
2:00 PM75 °FPassing clouds.10 mph74%29.95 "HgN/A
1:30 PM75 °FPassing clouds.10 mph69%29.98 "HgN/A
1:00 PM75 °FPassing clouds.10 mph69%29.95 "HgN/A
12:30 PM75 °FPassing clouds.10 mph69%29.95 "HgN/A
12:00 PM75 °FSunny.13 mph65%29.95 "Hg10 mi
11:30 AM75 °FSunny.10 mph69%29.95 "Hg10 mi
11:00 AM75 °FSunny.8 mph65%29.95 "Hg10 mi
10:30 AM75 °FPassing clouds.5 mph65%29.95 "HgN/A
10:00 AM73 °FScattered clouds.6 mph69%29.95 "HgN/A
9:30 AM72 °FScattered clouds.8 mph73%29.95 "HgN/A
9:00 AM73 °FPassing clouds.8 mph65%29.92 "HgN/A
8:30 AM73 °FPassing clouds.7 mph61%29.92 "HgN/A
8:00 AM72 °FPassing clouds.3 mph61%29.92 "HgN/A
7:30 AM70 °FPassing clouds.5 mph57%29.92 "HgN/A
7:00 AM68 °FPassing clouds.6 mph60%29.92 "HgN/A
6:30 AM68 °FPassing clouds.7 mph60%29.92 "HgN/A
6:00 AM68 °FPassing clouds.7 mph60%29.89 "HgN/A
5:30 AM68 °FPassing clouds.6 mph56%29.89 "HgN/A
5:00 AM68 °FClear.6 mph56%29.89 "Hg10 mi
4:30 AM70 °FClear.6 mph57%29.89 "Hg10 mi
4:00 AM70 °FClear.5 mph64%29.89 "Hg10 mi
3:30 AM70 °FClear.8 mph60%29.89 "Hg10 mi
3:00 AM70 °FClear.6 mph57%29.92 "Hg10 mi
2:30 AM70 °FClear.8 mph60%29.92 "Hg10 mi
2:00 AM70 °FClear.5 mph60%29.92 "Hg10 mi
1:30 AM72 °FClear.3 mph57%29.92 "Hg10 mi
1:00 AM72 °FClear.5 mph53%29.92 "Hg10 mi
12:30 AM73 °FClear.5 mph53%29.92 "Hg10 mi
12:00 AM73 °FClear.6 mph53%29.92 "Hg10 mi
11:00 PM
Thu, May 28
75 °FPassing clouds.3 mph50%29.92 "HgN/A
10:30 PM72 °FClear.1 mph65%29.92 "Hg10 mi
10:00 PM72 °FClear.5 mph65%29.92 "Hg10 mi
Weather by CustomWeather, © 2015

See weather overviewHow to use our weather pages